Meteo Giornale » Osservazioni meteo Italia » Treviso-S Angelo

ore: 19:50 - Osservazioni Meteo Treviso-S Angelo
Lat. 45° 39' N Lon. 12° 11' E Alt. 18 metri s.l.m.

sereno Europe/Rome

27 °C

Sereno

Temp. 24 Ore

21 °C

29 °C

Nord

5.5 Km/h

Dew point 17 °C

Umidità 54 %

Visibilità  10 Km

Il sole sorge alle ore 06:18

Il sole tramonta alle ore 20:09

Data e Ora Cielo e Fenomeni T °C DP °C Um. % Pres. hPa Vis. km Vento km/h
Oggi h: 19:50 sereno Sereno 27 17 54 1019 10 N 5.5
Oggi h: 19:20 sereno Sereno 27 17 54 1019 10 N 5.5
Oggi h: 18:50 sereno Sereno 28 17 51 1019 10 N 7.4
Oggi h: 18:20 sereno Sereno 28 18 54 1019 10 N 3.7
Oggi h: 17:50 sereno Sereno 27 17 54 1019 10 N 5.5
Oggi h: 17:20 sereno Sereno 27 18 57 1019 10 SE 7.4
Oggi h: 16:50 sereno Sereno 28 17 51 1019 10 E/SE 9.3
Oggi h: 16:20 sereno Sereno 28 17 51 1020 10 SE 9.3
Oggi h: 15:50 sereno Sereno 29 17 48 1020 10 E/NE 7.4
Oggi h: 15:20 sereno Sereno 28 17 51 1020 10 N 5.5
Oggi h: 14:50 sereno Sereno 28 17 51 1020 10 E/NE 11.1
Oggi h: 14:20 sereno Sereno 28 16 48 1020 10 E 13
Oggi h: 13:50 sereno Sereno 28 17 51 1021 10 E 11.1
Oggi h: 13:20 sereno Sereno 27 16 50 1021 10 E/NE 13
Oggi h: 12:50 sereno Sereno 26 15 50 1021 10 NE 11.1
Oggi h: 12:20 sereno Sereno 26 15 50 1021 10 N/NE 11.1
Oggi h: 11:50 sereno Sereno 25 16 57 1021 10 NE 9.3
Oggi h: 11:20 sereno Sereno 24 16 60 1021 10 NE 14.8
Oggi h: 10:50 sereno Sereno 24 16 60 1021 10 N/NE 13
Oggi h: 10:20 sereno Sereno 23 16 64 1021 10 N/NE 13
Oggi h: 09:50 sereno Sereno 23 16 64 1021 10 NE 14.8
Oggi h: 09:20 sereno Sereno 22 16 68 1021 10 E/NE 9.3
Oggi h: 08:50 sereno Sereno 23 16 64 1021 10 E/NE 13
Oggi h: 08:20 sereno Sereno 23 16 64 1021 10 N/NE 9.3
Oggi h: 07:50 sereno Sereno 22 17 73 1021 10 N/NE 9.3
Oggi h: 07:20 sereno Sereno 22 17 73 1021 10 N/NE 9.3
Oggi h: 06:50 molto_nuvoloso Molto Nuvoloso 22 16 68 1020 10 N/NE 13
Oggi h: 06:20 molto_nuvoloso Molto Nuvoloso 21 17 77 1020 10 N 9.3
Oggi h: 05:50 nuvoloso Nuvoloso 21 17 77 1020 10 N/NO 7.4
Oggi h: 05:20 sereno Sereno 22 16 68 1020 10 N/NE 7.4
Oggi h: 04:50 poco_nuvoloso Poco Nuvoloso 22 17 73 1020 10 N/NE 9.3
Oggi h: 04:20 nuvoloso Nuvoloso 22 17 73 1020 10 N 11.1
Oggi h: 03:50 sereno Sereno 22 17 73 1020 10 N 7.4
Oggi h: 03:20 sereno Sereno 22 17 73 1020 10 N 7.4
Oggi h: 02:50 sereno Sereno 22 18 78 1020 10 N/NE 7.4
Oggi h: 02:20 nuvoloso Nuvoloso 22 18 78 1020 10 N 7.4
Oggi h: 01:50 coperto Coperto 23 17 68 1020 10 N 9.3
Oggi h: 01:20 molto_nuvoloso Molto Nuvoloso 23 17 68 1020 10 N 9.3
Oggi h: 00:20 sereno Sereno 23 18 73 1020 10 N 7.4
Ieri h: 23:50 poco_nuvoloso Poco Nuvoloso 24 18 69 1020 10 N/NE 11.1
Ieri h: 23:20 nuvoloso Nuvoloso 23 18 73 1020 10 NE 9.3
Ieri h: 22:50 sereno Sereno 23 18 73 1020 10 NE 7.4
Ieri h: 22:20 sereno Sereno 23 18 73 1020 10 N 9.3
Ieri h: 21:50 sereno Sereno 24 18 69 1020 10 N/NE 9.3
Ieri h: 21:20 nuvoloso_temporali Temporale nelle Vicinanze 24 18 69 1019 10 N/NE 13
Ieri h: 20:50 poco_nuvoloso Poco Nuvoloso 24 18 69 1019 10 N/NE 13